Wind_Speed
20 20 22 24 26 29 29 28 29 28 26 26 25 25 25 24 25 24 23 21 19 18 16 15 15 15 16 18 18 19 19 19 20 21 21 21 19 18 17 17 17 18 18 19 18 18 18 19 19 20 20 20 20 20 19 19 19 18 17 17 15 14 12 11 11 10 9 10 10 10 10 10 11 10 9 9 10 11 11 11 10 10 9 9 8
15 18 21 22 24 27 26 27 30 29 27 27 26 26 26 26 26 26 24 21 19 17 15 14 15 15 16 18 19 19 19 20 21 21 21 21 20 19 18 18 19 19 19 19 18 18 18 19 20 21 21 21 21 20 20 20 19 18 17 16 16 15 14 12 12 11 10 10 9 8 8 9 10 9 8 9 11 11 11 11 11 11 10 9 9
12 13 18 20 21 23 24 25 27 27 27 27 27 26 26 26 28 28 26 22 18 15 14 13 13 14 15 16 18 18 19 20 21 21 22 22 21 20 19 18 18 18 18 18 18 18 19 20 20 21 21 21 21 21 21 20 20 19 17 17 17 17 16 14 13 11 10 10 9 7 6 7 8 9 9 10 11 11 11 12 11 11 10 10 9
11 10 12 16 18 19 21 23 25 26 26 26 25 25 25 26 29 29 26 22 18 15 14 12 11 12 13 15 17 18 19 19 20 21 22 22 21 20 19 18 17 17 18 18 18 18 19 19 20 20 21 21 21 21 21 21 21 20 19 19 19 18 16 15 14 13 11 10 10 8 6 7 8 9 10 11 11 11 12 12 11 11 10 10 9
9 8 7 10 16 18 19 21 23 23 24 25 24 24 25 26 28 27 22 19 17 16 14 12 10 10 12 14 16 18 19 19 19 20 20 21 21 20 19 18 17 17 17 18 18 18 18 19 19 20 21 21 22 22 21 21 22 21 21 21 20 19 17 15 15 14 12 10 11 9 7 8 10 11 11 12 11 11 12 12 11 11 11 10 9
11 9 7 8 12 19 21 20 21 21 22 24 24 24 25 26 26 25 22 19 18 18 15 13 11 10 10 12 14 16 18 19 18 19 19 20 20 20 20 19 18 18 17 17 18 18 18 19 20 21 21 21 21 21 22 22 22 22 22 22 21 20 18 17 16 15 12 11 12 11 7 9 11 11 12 12 12 12 12 12 12 11 11 10 9
14 13 11 13 13 17 24 22 21 22 21 21 22 23 25 27 26 25 24 22 20 19 16 14 12 10 10 11 12 14 16 17 17 17 17 19 20 20 20 20 19 19 18 18 17 17 18 19 20 21 21 21 21 22 22 23 23 23 22 23 23 21 19 18 17 14 11 12 15 13 9 8 9 10 11 13 13 12 12 12 11 10 10 10 10
15 15 15 14 15 13 22 23 21 23 22 21 22 23 25 28 27 26 26 24 21 19 17 15 13 11 10 10 11 12 13 14 15 16 16 18 19 20 20 20 19 19 19 18 18 18 18 19 21 22 22 22 22 22 23 23 23 23 24 24 23 21 19 18 17 14 13 15 16 14 11 9 9 9 10 11 10 9 10 11 11 10 11 11 11
15 13 15 15 13 9 15 20 21 23 23 23 23 24 25 28 29 30 30 26 22 20 18 16 15 12 11 11 11 12 13 14 15 16 17 17 18 19 19 19 19 18 18 19 19 19 19 20 21 22 22 22 23 24 24 23 23 24 25 25 23 21 20 18 17 15 16 17 17 15 13 12 11 11 11 10 8 8 10 12 11 11 13 14 14
14 12 13 15 14 11 13 18 20 23 23 23 24 25 27 29 30 32 32 28 25 22 20 18 16 15 14 13 12 13 14 14 15 16 17 18 18 19 19 18 18 18 18 19 19 19 19 20 21 21 22 23 24 24 24 23 23 24 24 24 22 21 20 19 18 17 18 18 16 15 12 11 12 14 13 13 12 13 14 13 12 13 15 16 16
13 12 13 15 17 18 18 19 20 23 25 26 25 26 29 32 33 33 33 31 27 24 22 20 18 17 17 16 14 14 15 15 16 16 17 18 18 18 18 18 18 18 19 19 19 19 19 20 20 21 21 22 22 23 24 24 24 24 24 24 23 21 21 20 19 19 18 16 15 13 12 12 14 15 15 15 15 15 16 16 16 16 18 19 18
12 12 12 15 18 21 22 22 22 25 28 29 28 27 28 32 35 36 35 33 30 27 24 23 21 20 20 19 17 16 16 17 17 17 17 17 18 18 19 19 19 19 20 19 19 19 19 19 20 20 21 21 21 22 24 26 26 26 25 25 23 22 22 21 21 20 18 16 14 13 14 15 16 16 16 16 16 17 18 19 19 20 21 23 22
12 11 11 14 17 21 23 24 25 27 30 32 33 32 30 31 35 37 37 36 33 30 27 25 23 23 22 21 20 18 18 17 17 17 17 17 18 19 19 19 20 20 20 20 20 20 20 20 20 21 21 22 21 21 22 25 26 26 25 25 24 23 23 23 22 21 19 17 15 15 16 17 18 18 18 18 19 20 21 22 23 24 25 26 26
13 11 11 13 15 18 20 22 25 28 32 34 37 37 34 33 34 37 39 39 37 34 31 28 26 25 24 23 22 21 19 18 18 17 17 17 18 19 20 20 20 20 20 20 21 21 22 22 22 22 22 23 23 22 21 22 24 24 24 24 23 23 24 24 24 23 21 19 17 18 19 20 20 21 21 22 23 24 25 26 28 29 30 31 31
11 11 11 12 13 14 17 20 24 28 31 33 36 38 37 36 37 38 40 42 41 38 34 31 28 27 26 26 25 23 21 19 18 18 18 18 18 19 21 22 22 22 21 21 22 22 21 22 23 23 23 23 24 24 22 22 24 24 23 24 24 24 24 25 25 25 23 22 21 21 22 23 23 24 24 25 26 27 29 30 32 33 34 35 35
13 11 10 11 11 11 13 16 22 27 30 31 33 35 37 38 38 39 40 43 44 42 38 34 31 30 29 28 27 26 24 21 20 20 19 19 19 20 22 23 24 24 24 23 23 22 21 21 22 23 23 23 24 24 23 22 24 25 25 26 27 27 27 26 26 26 25 25 25 25 25 26 27 27 28 29 30 31 32 34 35 37 38 38 37
15 14 12 12 10 9 10 12 16 23 27 28 29 33 37 39 38 38 40 42 44 45 42 37 34 32 31 30 30 28 26 24 22 21 21 21 21 21 22 23 24 25 25 24 24 23 21 21 20 21 21 21 22 23 24 24 25 26 27 28 29 30 30 29 28 28 28 28 27 28 29 30 30 31 32 33 34 35 36 37 39 40 40 40 40
15 14 14 14 13 10 7 7 10 17 23 25 26 28 34 40 40 38 39 42 43 45 44 40 36 35 33 32 31 30 28 26 23 22 22 22 23 22 22 23 24 25 25 25 25 24 23 21 20 20 20 20 21 23 24 25 26 27 28 28 29 29 30 30 30 30 30 30 30 31 32 32 33 34 35 36 37 38 39 41 41 41 42 42 43
14 13 13 14 14 13 10 6 5 10 16 20 21 21 25 36 44 41 39 42 44 45 44 41 39 38 36 34 33 31 30 28 25 23 22 22 23 24 23 23 24 25 25 25 25 25 25 24 22 21 21 21 22 23 24 26 28 28 29 29 29 29 30 30 30 30 31 31 32 33 34 35 36 37 38 39 39 39 40 40 40 40 41 42 44
15 14 14 13 12 13 13 10 8 6 9 13 16 17 19 28 42 44 41 43 43 43 43 41 40 40 39 36 35 33 31 29 27 24 23 22 23 24 24 24 24 25 25 25 26 26 26 25 25 24 24 24 24 23 24 25 26 28 28 29 29 29 29 29 29 29 29 30 31 32 33 34 35 36 36 37 37 37 38 38 39 41 42 44 46
16 16 16 14 12 11 11 11 11 10 11 13 16 19 21 26 38 45 44 44 42 41 42 43 40 39 38 37 36 34 32 30 28 26 24 23 22 23 24 25 25 26 26 26 27 27 27 27 26 26 26 26 25 25 24 24 24 25 26 26 26 27 27 26 26 26 27 28 28 29 30 31 32 33 34 35 36 38 39 40 42 43 45 47 48
16 16 17 16 13 11 10 10 12 13 13 13 15 19 24 28 35 41 42 43 42 40 43 44 41 38 38 37 36 35 33 31 30 28 26 24 24 24 25 26 26 27 27 28 28 28 28 27 26 26 25 25 25 25 25 24 24 25 25 26 26 26 26 26 26 27 27 28 28 29 31 32 33 34 36 37 38 39 40 41 43 44 44 46 47
16 16 16 16 14 13 11 10 11 12 11 9 7 9 14 21 28 34 38 39 39 40 42 44 40 38 38 37 36 36 34 32 31 29 28 27 27 28 28 28 27 27 26 27 28 28 28 27 27 27 26 25 25 26 26 26 26 26 27 27 27 27 27 27 28 28 29 30 30 31 32 33 34 35 36 37 36 37 38 40 41 42 42 43 44
14 14 14 15 14 13 12 11 11 12 11 9 7 8 8 11 19 26 31 35 37 38 39 39 37 37 38 37 37 35 33 32 32 31 30 30 31 32 32 31 30 30 30 30 30 29 29 29 28 28 27 27 27 27 27 27 27 27 28 28 28 28 28 29 29 30 30 31 32 32 33 33 34 35 35 36 36 37 38 39 39 39 40 40 40
11 11 11 12 12 11 10 10 10 11 11 9 10 13 12 10 13 17 20 25 31 35 35 36 38 39 38 36 34 33 32 32 31 29 29 30 32 34 36 35 34 34 34 35 34 32 31 31 29 28 28 28 29 29 29 29 29 29 29 30 30 30 30 30 31 31 31 31 31 31 31 31 33 34 35 36 36 36 36 36 36 36 37 37 37
10 9 9 9 10 10 9 9 8 8 9 9 8 10 10 9 13 16 17 19 25 28 29 30 34 37 36 33 31 30 29 28 28 28 30 31 33 36 39 39 38 36 35 36 35 33 31 30 29 29 29 30 30 30 30 31 31 31 31 31 32 32 32 31 31 30 30 29 29 29 30 32 33 33 34 34 34 34 33 33 33 33 33 34 34
10 10 9 8 7 7 7 7 7 7 7 8 8 7 7 6 8 11 15 18 21 22 22 22 24 27 29 29 28 28 28 29 31 34 36 37 38 39 40 41 40 37 36 36 36 35 33 32 32 32 33 32 32 32 33 33 33 33 32 31 30 29 28 27 27 27 27 28 29 29 30 31 31 31 31 31 31 31 30 30 30 30 30 31 32
11 10 9 8 7 6 4 4 5 5 6 6 6 6 5 5 5 6 7 10 13 16 19 21 22 23 24 26 27 28 30 32 35 36 38 40 41 41 40 40 40 39 38 38 38 38 37 35 35 35 35 34 34 34 33 32 30 28 26 24 23 23 23 23 24 25 26 27 28 28 28 28 28 28 28 28 27 27 27 28 28 29 30 31 32
13 11 10 10 9 8 6 5 4 3 4 4 5 5 5 5 4 4 4 4 5 7 9 12 15 16 18 20 23 25 28 30 32 33 34 35 36 36 37 37 38 38 38 36 35 34 33 32 31 31 30 29 28 27 26 23 20 18 17 18 19 20 22 23 24 24 25 25 25 25 25 25 25 24 24 24 24 25 26 27 29 30 31 32 32
15 13 12 11 11 10 9 8 6 5 5 4 4 4 5 5 5 4 4 4 3 4 4 5 6 8 10 12 15 18 21 23 25 27 27 27 27 28 29 30 30 31 31 30 28 25 24 23 23 23 22 21 19 17 16 14 14 14 16 18 20 21 22 23 23 23 23 23 23 23 22 22 21 21 21 22 23 25 26 28 29 30 30 31 31
15 15 14 13 11 11 10 10 9 8 7 6 6 6 6 6 6 5 5 5 4 4 4 4 4 5 6 7 8 10 11 13 15 17 18 19 20 20 20 20 21 21 21 21 20 18 16 15 14 14 14 13 12 11 11 12 14 16 18 19 21 21 21 21 21 21 20 20 20 20 19 19 19 19 20 22 23 25 26 27 28 29 29 30 30
14 15 15 14 13 11 11 11 11 10 10 9 9 8 8 7 7 7 7 7 7 6 6 6 6 6 7 7 7 7 8 9 9 10 10 11 12 13 13 13 13 13 13 13 12 11 11 10 10 9 9 10 10 11 12 14 16 17 19 19 20 19 19 19 18 18 18 18 17 17 17 18 18 19 21 22 24 25 26 27 27 28 28 28 28
15 14 15 15 14 13 12 11 12 12 12 12 11 10 10 9 8 8 8 7 8 8 8 8 8 8 8 8 8 8 9 9 8 8 8 8 8 9 9 9 8 8 8 8 7 8 8 8 9 9 10 11 11 13 14 15 17 17 17 17 17 17 17 16 16 16 16 16 16 17 17 18 19 20 21 23 24 24 25 25 26 26 26 27 27
16 15 14 14 14 14 13 12 12 13 13 13 12 12 11 11 10 9 9 9 9 9 9 9 9 9 9 9 9 8 9 8 7 7 6 7 6 6 6 6 6 6 7 7 7 8 9 9 9 10 11 12 13 14 15 15 15 15 15 15 15 14 15 15 15 15 15 16 16 17 17 18 20 21 22 23 24 24 25 25 25 26 27 27 28
17 16 16 15 14 13 12 12 12 12 13 13 13 12 12 12 12 11 11 10 9 10 10 10 10 9 10 10 9 9 8 8 7 5 5 5 6 6 6 6 6 7 8 9 10 10 11 11 11 12 13 14 14 14 14 14 13 13 13 13 13 13 13 14 14 15 15 16 17 17 18 19 20 21 22 23 24 25 25 25 26 26 27 27 28
16 16 16 15 13 11 10 10 10 11 11 12 13 12 12 12 12 12 12 11 10 10 10 11 10 10 9 10 10 10 9 9 8 7 6 6 7 7 8 8 9 10 11 12 13 13 12 12 13 13 13 13 13 13 13 13 13 12 12 12 12 12 13 13 14 14 15 16 17 18 19 19 20 21 22 23 24 24 25 25 25 26 26 27 28
16 16 15 14 12 10 8 7 8 9 10 11 11 12 12 13 13 13 13 12 11 11 10 10 11 10 10 10 11 11 11 10 10 9 9 9 9 10 10 11 11 12 13 13 13 12 12 12 12 12 12 12 12 12 12 11 11 11 10 11 11 12 12 13 14 14 15 16 16 17 18 19 20 21 22 23 23 23 24 24 25 26 27 27 27
16 15 14 12 10 7 7 8 8 8 9 10 11 12 12 13 14 14 14 13 13 12 11 10 10 10 10 10 10 11 12 12 12 11 11 10 10 11 11 11 12 12 12 12 12 11 10 11 11 11 10 10 10 10 10 10 9 10 10 10 11 11 12 13 13 14 14 15 16 17 18 19 20 21 21 22 22 22 23 24 25 25 26 26 25
16 14 12 11 8 6 7 9 10 10 10 10 11 11 12 13 14 14 15 14 13 12 11 10 9 10 10 10 9 10 11 12 13 12 11 11 11 11 11 11 11 11 11 11 11 10 10 10 10 10 10 9 9 9 9 9 9 9 9 10 10 11 12 12 13 13 14 15 17 17 18 19 19 20 20 21 21 22 23 24 24 24 24 23 23
15 13 11 9 6 5 6 9 12 12 12 11 11 12 12 13 14 14 15 14 13 12 12 11 10 10 10 11 10 9 10 11 12 11 11 11 11 11 11 11 11 11 11 10 10 10 10 9 9 9 9 8 8 8 8 8 8 8 8 9 10 11 12 12 13 14 15 16 17 17 18 18 19 19 20 21 21 22 22 22 23 22 22 21 21
12 11 9 7 6 7 8 10 12 13 13 13 13 13 13 13 13 14 14 14 12 12 11 11 10 10 11 11 11 10 11 12 12 11 11 11 11 10 10 10 11 10 10 10 10 9 9 9 9 8 8 7 7 6 6 7 8 8 9 10 11 12 13 14 14 15 15 16 16 17 17 18 19 19 20 20 21 21 21 21 20 20 20 19 19
11 10 8 7 9 10 10 11 13 15 14 13 13 14 15 14 13 13 13 13 12 12 11 11 11 10 11 11 11 12 13 13 13 12 12 11 11 10 10 10 10 10 10 9 9 9 8 8 7 7 6 6 6 6 6 7 8 9 10 11 12 13 14 15 15 15 15 15 16 16 17 18 18 19 19 20 20 20 20 19 18 18 18 17 17
10 9 8 7 8 9 10 12 14 15 15 14 14 15 15 15 14 12 12 11 11 11 11 11 10 11 11 11 11 12 13 13 13 13 12 11 11 10 10 10 10 10 9 9 8 8 7 7 7 6 6 6 6 6 7 8 9 10 11 12 13 14 14 14 13 13 14 14 15 15 16 16 17 17 17 17 18 18 17 17 16 16 15 15 15
9 9 9 7 6 7 9 11 12 13 14 15 15 15 16 15 13 12 11 10 9 10 10 10 10 10 11 11 10 11 11 12 12 11 11 10 11 11 10 10 10 9 9 8 8 8 7 7 7 6 6 6 7 8 9 10 11 11 12 12 12 12 11 12 12 12 13 13 13 14 14 15 15 15 15 14 15 15 15 15 14 14 13 13 14
10 10 9 8 7 8 10 11 12 13 15 15 15 15 16 16 14 12 11 10 9 9 10 10 9 9 9 9 8 9 10 10 10 10 10 11 11 11 11 11 10 9 9 8 8 8 8 7 7 7 7 8 8 9 9 10 10 10 10 10 10 10 10 10 10 10 11 11 11 12 12 12 12 12 12 12 12 12 13 13 13 12 12 12 12
12 12 12 11 11 12 12 12 13 15 16 16 16 16 16 16 15 13 11 10 10 10 10 10 9 8 7 6 7 8 9 10 10 10 11 11 12 12 11 11 11 10 9 9 9 9 8 8 8 7 8 8 8 8 8 8 8 8 8 8 8 8 7 7 8 8 9 9 9 9 10 10 10 10 10 11 11 12 12 13 13 12 12 12 12
14 14 14 14 14 14 14 14 15 16 17 18 18 18 18 17 17 15 13 11 10 10 10 10 9 7 5 6 7 8 9 10 11 11 11 11 11 11 11 11 10 10 10 9 9 9 8 8 7 7 6 6 6 5 6 6 7 7 7 6 6 5 5 6 6 7 7 7 8 8 8 9 9 10 10 10 11 12 12 13 13 12 12 12 12
13 14 15 15 15 14 15 15 15 15 17 18 19 19 19 18 17 16 14 11 10 9 10 10 9 7 6 6 7 8 9 10 11 12 12 11 11 10 10 10 10 10 10 10 10 9 8 7 6 5 4 3 3 4 4 5 5 5 5 4 4 4 4 5 5 6 6 6 7 8 9 9 10 10 10 10 11 11 12 12 12 12 12 12 12
12 12 13 14 15 14 14 14 15 16 19 20 19 18 17 17 16 15 14 12 11 9 9 9 9 8 7 7 8 9 9 10 10 11 11 11 10 10 10 10 10 10 10 10 9 8 7 6 5 3 2 2 2 3 3 3 3 3 3 3 3 3 3 4 5 6 7 7 8 9 9 9 10 10 10 10 10 11 11 11 12 12 12 12 12
13 12 12 13 13 13 13 14 15 17 19 19 16 14 14 14 14 13 13 12 11 10 10 9 8 8 8 7 8 9 9 9 9 9 10 10 10 10 10 10 10 10 9 8 8 7 7 6 4 3 2 1 1 1 1 2 2 2 2 2 2 3 4 5 6 7 8 9 9 9 9 9 9 9 9 9 9 10 11 11 12 12 12 12 12
15 13 12 12 12 11 11 12 14 16 16 14 11 10 10 12 12 12 11 11 11 11 11 9 7 7 8 8 8 8 9 8 8 8 9 9 9 10 10 9 9 9 9 8 7 7 6 6 5 3 2 1 1 1 2 2 2 3 3 3 3 4 5 6 7 8 8 8 8 8 9 9 9 9 9 9 9 10 11 11 11 11 11 12 11
Wind_Direction
269 259 249 241 231 218 208 209 214 211 213 223 229 235 232 219 208 204 206 208 203 199 198 198 202 207 212 217 221 223 225 226 227 227 228 230 231 232 232 230 229 229 231 233 232 228 227 226 223 221 223 223 220 218 220 223 224 225 227 226 225 227 231 238 244 242 239 242 248 246 233 224 217 212 212 210 209 212 212 211 213 218 223 228 233
283 269 255 241 223 210 201 203 210 209 211 220 225 230 233 225 213 205 202 206 207 201 200 203 206 211 215 219 223 224 227 230 231 230 230 230 230 231 230 228 227 226 228 229 230 228 226 225 224 222 223 224 222 220 222 225 225 226 228 227 226 226 227 231 233 234 235 235 234 226 212 209 207 203 204 209 211 212 212 213 217 222 227 233 239
300 282 257 239 219 204 195 196 203 207 212 220 223 224 228 226 219 209 198 198 205 206 205 209 211 212 216 220 224 224 224 228 230 231 230 228 229 229 227 226 226 225 226 226 226 226 225 223 223 222 223 224 223 223 225 226 225 225 225 225 226 225 224 224 226 229 231 228 224 217 208 209 210 205 204 210 215 215 214 217 220 225 231 237 245
307 293 259 237 220 210 202 196 198 206 216 223 226 224 224 227 226 217 201 190 197 208 212 216 217 215 215 219 223 222 221 223 226 227 228 227 227 228 227 226 225 224 224 223 221 222 222 221 220 221 223 224 224 225 227 228 227 225 222 222 224 224 224 225 225 225 227 226 222 217 221 233 229 219 212 213 218 219 219 222 226 230 235 240 249
302 305 278 242 225 219 216 204 198 208 221 227 232 230 225 224 224 223 212 193 195 209 215 219 223 220 219 220 222 221 219 219 220 221 225 228 228 228 228 227 227 226 226 224 222 221 222 222 221 222 224 226 226 228 229 229 230 227 223 223 223 223 225 228 228 228 230 231 228 222 230 247 244 233 222 215 218 223 227 231 234 237 240 243 250
288 300 312 294 251 228 223 215 203 208 222 230 235 233 227 222 220 221 216 201 200 210 213 217 222 221 224 228 229 227 223 220 219 220 223 227 228 229 229 229 230 230 229 228 226 224 222 222 223 223 224 225 226 229 231 232 232 229 224 222 222 223 227 230 232 234 236 238 234 227 232 249 250 243 233 225 222 224 231 237 240 244 248 251 258
276 280 291 314 301 243 223 220 212 209 218 228 234 234 227 221 219 221 219 207 204 211 214 217 223 222 223 230 236 238 232 226 224 223 224 227 228 229 229 229 230 232 232 232 231 228 225 224 225 226 226 226 227 230 232 233 234 231 225 220 220 224 229 233 236 237 241 247 241 229 226 243 249 243 235 232 231 234 243 250 251 253 257 261 264
272 276 275 297 316 263 220 217 219 217 218 222 229 233 228 220 219 223 223 214 209 213 216 219 225 227 224 226 230 235 233 229 226 225 227 229 230 230 231 231 231 232 234 235 233 229 226 226 226 227 228 228 228 229 230 232 234 232 227 223 222 225 228 234 238 239 245 250 241 227 223 231 243 248 245 245 248 252 258 260 256 255 259 261 260
269 276 271 275 299 275 216 214 221 222 222 222 226 231 227 219 218 222 222 218 214 215 218 222 225 226 224 224 226 226 226 227 225 224 225 227 230 232 233 234 234 235 236 236 234 231 229 229 229 230 230 229 229 229 228 229 230 231 229 225 223 224 228 235 238 240 247 245 231 223 225 231 243 255 260 265 265 258 253 253 253 253 256 259 260
271 266 263 261 268 260 228 222 225 225 226 227 228 230 227 221 220 222 221 219 218 217 219 223 226 227 224 223 225 224 224 224 224 224 223 223 226 229 232 234 235 236 237 237 237 236 235 235 234 234 233 232 231 230 229 227 226 228 227 224 222 224 229 234 237 243 247 238 223 223 229 238 252 259 261 262 258 252 252 258 262 262 264 266 266
282 268 255 250 251 251 242 233 230 229 230 229 229 230 229 224 222 223 222 221 218 217 220 223 226 229 226 224 224 224 223 223 222 224 224 223 223 225 228 231 232 233 234 235 236 238 238 238 238 238 237 235 234 234 232 228 223 222 223 224 226 226 226 230 237 244 245 232 222 228 235 242 252 255 253 254 253 253 257 261 264 265 269 271 270
294 283 267 252 245 244 242 238 234 233 233 232 230 230 230 226 224 223 224 224 220 218 220 223 225 228 228 226 226 224 222 222 221 223 224 223 222 222 224 226 228 230 232 233 235 235 236 237 239 240 239 237 235 235 233 228 221 219 222 225 227 226 224 227 235 242 244 235 231 238 242 245 251 253 255 259 262 265 267 268 270 271 273 275 274
300 296 284 269 255 244 241 240 239 237 236 234 232 231 229 228 227 225 224 224 221 219 221 223 224 226 227 226 227 226 223 221 221 222 224 223 222 222 222 223 226 230 232 234 235 235 235 236 238 239 238 237 235 233 232 227 221 219 223 225 226 228 227 229 234 241 246 245 242 245 249 253 257 262 266 269 271 274 276 278 280 281 281 282 282
306 304 297 285 270 256 247 242 239 239 238 233 231 231 229 228 228 227 224 223 221 219 219 222 223 224 225 225 226 226 222 219 220 221 222 224 225 226 225 225 227 231 233 234 236 237 237 236 236 236 237 237 235 233 232 227 221 221 224 225 227 230 232 234 238 242 246 248 248 249 253 258 262 267 271 274 276 278 280 282 282 283 285 286 285
303 309 310 302 288 272 257 243 236 237 239 236 231 230 230 230 230 228 225 224 222 219 217 219 222 223 223 223 224 223 221 219 221 222 222 223 225 228 230 228 228 230 232 234 236 238 237 235 234 235 235 235 233 232 232 226 221 223 225 226 229 231 233 236 240 243 247 249 251 252 256 260 264 267 270 273 275 278 279 279 280 281 283 284 284
299 303 309 310 304 291 272 252 238 235 239 241 237 233 232 233 233 232 228 225 222 219 215 215 219 220 220 221 222 222 221 220 222 224 225 226 226 229 232 233 232 231 230 231 233 236 235 233 232 233 233 232 230 230 229 225 223 226 229 230 230 231 232 236 239 242 246 249 252 255 257 260 263 266 268 270 272 274 275 275 276 277 279 280 280
306 305 306 307 307 302 288 268 248 237 236 241 243 239 234 234 235 236 234 228 224 220 214 212 216 218 217 219 221 222 224 223 222 223 226 229 230 231 233 235 237 236 234 231 231 232 233 232 231 231 231 230 229 228 227 226 227 229 232 233 233 233 234 238 241 243 247 250 253 256 258 260 262 264 266 268 269 271 272 274 275 276 277 278 279
317 316 316 313 311 310 302 283 260 243 234 237 246 247 240 234 234 238 237 230 224 219 214 210 213 215 214 216 219 223 227 226 224 224 225 227 229 232 234 236 237 239 239 236 233 231 231 231 230 231 232 232 230 229 228 228 230 231 233 235 236 236 237 240 243 245 247 250 253 256 259 261 264 265 267 269 270 271 272 273 275 276 277 278 279
329 329 331 328 322 319 317 318 294 254 239 239 248 260 255 237 230 234 238 230 224 219 213 211 213 213 211 214 216 221 227 229 227 227 226 227 228 228 231 233 235 238 239 238 236 234 233 232 232 232 233 232 232 231 230 230 232 233 234 236 238 240 242 244 246 248 250 253 255 258 260 262 264 266 268 269 270 271 272 273 275 276 277 278 279
343 344 347 346 338 328 321 324 327 296 268 262 259 270 275 246 228 228 230 225 222 219 213 212 216 213 210 211 214 219 225 228 229 229 228 229 231 230 229 228 230 233 235 235 235 235 235 236 235 235 234 233 232 232 232 233 233 234 235 236 238 240 242 245 248 250 252 254 256 257 259 261 262 264 266 268 270 272 273 275 276 277 278 279 280
354 353 354 354 349 339 332 329 327 312 296 288 271 263 266 251 233 228 224 217 216 218 213 212 216 215 211 211 213 215 220 224 227 228 228 230 233 234 232 228 225 226 229 232 233 234 236 238 238 238 237 236 235 234 234 235 235 234 234 235 236 238 240 243 246 249 251 254 256 258 260 261 263 266 268 271 273 275 277 278 280 280 281 282 282
353 356 358 357 351 343 338 333 328 319 303 291 279 262 254 244 230 221 214 209 212 216 213 210 212 215 215 214 213 213 216 219 222 224 225 228 233 236 236 231 226 224 225 228 230 232 234 236 238 239 239 238 238 238 238 239 239 237 237 237 238 240 242 244 247 249 252 255 257 260 263 265 267 269 271 273 275 277 280 281 283 284 284 284 285
344 351 356 359 355 347 338 326 317 310 295 282 289 277 254 237 221 208 201 202 211 216 212 209 211 215 216 216 216 214 213 215 219 223 223 225 229 233 233 230 226 225 225 228 230 230 230 232 235 238 239 238 239 239 240 241 242 243 244 244 245 246 248 251 253 255 258 260 263 266 268 270 271 273 274 277 279 280 281 282 283 283 284 284 285
338 343 347 352 355 353 345 334 320 307 290 267 262 272 258 227 213 206 201 201 208 213 212 210 214 217 216 217 218 216 212 213 219 223 226 228 229 229 228 224 220 220 222 225 228 229 229 230 231 234 236 237 239 241 243 245 246 248 250 251 253 254 257 259 261 262 264 266 268 270 271 273 275 278 280 282 283 282 282 282 283 284 285 286 288
336 338 338 342 348 351 351 348 339 326 313 292 273 274 274 248 226 224 219 211 210 213 215 217 218 218 218 219 221 219 216 216 220 225 230 235 235 232 226 221 218 217 217 219 222 223 224 226 229 232 236 238 240 242 244 246 248 250 252 254 256 258 260 262 263 265 266 267 269 272 275 278 280 281 282 283 283 283 283 285 286 287 288 290 291
335 336 335 336 339 343 347 351 348 338 332 326 311 299 292 268 242 237 234 225 219 218 221 223 222 219 220 222 222 221 221 224 230 236 241 245 247 241 231 222 218 217 216 217 218 219 220 223 227 232 235 237 239 241 243 246 248 249 251 253 255 258 259 261 263 266 268 271 275 279 281 282 282 282 282 283 284 285 286 287 288 288 289 290 291
330 331 333 331 330 333 339 343 343 339 335 329 324 321 318 299 265 246 236 232 230 229 231 233 231 226 223 224 226 230 236 241 246 250 252 252 248 241 231 222 218 218 218 218 218 219 220 221 224 228 231 234 236 239 242 244 245 245 247 250 254 257 261 264 269 273 276 279 280 281 281 281 282 283 284 285 285 286 287 288 288 289 290 291 292
319 322 323 320 315 313 316 323 331 336 336 328 319 317 318 315 302 280 257 247 245 241 238 240 242 240 237 236 239 243 247 249 249 251 251 247 239 231 226 222 219 219 220 221 220 220 220 221 223 226 229 232 234 237 240 241 242 243 247 252 259 266 271 275 278 279 279 279 279 279 279 280 281 282 283 284 285 287 289 291 293 294 295 295 295
309 311 312 310 307 304 301 296 292 300 313 318 317 315 315 313 310 308 299 281 272 262 253 250 251 250 249 249 249 249 249 248 247 245 243 238 232 228 226 225 224 224 227 228 226 224 224 225 227 229 232 234 236 238 241 244 248 255 264 272 277 279 280 279 277 276 276 275 276 277 278 279 280 282 284 287 290 293 295 296 297 297 297 296 296
307 305 304 305 306 306 305 301 292 280 273 277 287 292 296 299 299 297 297 291 280 272 265 259 256 256 254 252 251 248 247 245 243 240 237 234 233 231 229 227 227 228 231 233 233 231 229 229 231 232 234 237 240 243 249 258 270 279 283 283 280 277 275 273 273 273 274 274 276 277 279 280 283 286 289 293 295 297 298 298 298 298 298 298 299
313 307 302 299 300 301 301 298 293 286 278 272 268 264 264 267 269 269 272 271 265 258 251 244 241 242 242 242 243 242 240 237 234 232 230 229 230 230 228 226 226 227 227 228 231 233 233 234 235 237 241 247 255 264 274 280 283 281 278 274 272 271 271 272 273 274 275 277 278 280 282 285 287 290 293 295 297 298 299 299 300 301 302 302 303
324 316 309 302 296 292 292 292 289 287 284 282 279 273 266 263 263 262 262 261 261 260 256 252 247 243 242 243 242 240 238 235 231 227 223 220 219 220 221 221 222 224 226 229 235 242 249 255 261 267 274 279 282 283 282 278 274 271 270 270 271 271 273 275 276 278 280 282 283 285 286 287 289 291 294 296 298 301 302 303 304 304 304 304 304
327 323 317 309 300 294 291 291 290 287 285 285 285 283 279 274 271 270 269 267 266 264 259 257 256 253 253 254 252 251 250 246 244 243 240 235 232 230 230 233 236 241 247 255 266 276 283 289 293 293 290 286 280 275 271 268 267 267 268 269 271 273 275 278 279 282 285 286 286 285 285 286 289 293 297 300 302 304 304 304 304 304 304 305 306
326 323 320 314 308 301 297 295 294 291 289 288 286 284 282 279 273 270 269 270 272 272 270 269 267 266 265 264 263 266 267 264 263 266 266 266 266 266 269 274 278 284 288 289 289 289 288 287 285 279 274 270 267 265 264 264 265 266 267 269 271 274 277 279 281 283 284 283 283 284 286 290 295 298 301 304 305 305 305 305 304 305 306 307 309
324 322 321 318 313 309 304 301 300 298 296 294 291 288 286 282 276 272 269 269 273 276 275 273 271 271 271 270 267 268 272 275 276 273 270 273 277 276 279 280 277 275 273 271 268 267 266 265 262 259 259 260 260 260 261 261 262 263 265 267 270 273 275 277 279 280 281 283 285 288 292 296 299 301 304 305 306 306 306 305 305 306 308 310 312
319 318 320 319 316 313 312 313 314 313 308 304 300 296 293 289 285 281 277 276 278 280 280 276 272 268 266 264 261 259 258 261 264 259 250 248 249 250 253 253 252 252 252 253 253 253 253 252 251 251 252 254 254 255 255 255 256 259 261 265 268 272 276 279 282 285 287 289 291 294 296 299 302 304 305 306 305 305 305 306 308 310 312 312 312
313 314 317 317 317 321 329 332 331 326 320 314 309 304 300 295 292 290 286 283 281 281 282 281 275 269 264 258 253 248 244 243 245 246 243 239 238 239 241 242 243 245 247 248 249 248 247 248 249 249 249 249 249 250 251 253 257 261 265 270 275 279 283 287 289 291 292 294 295 298 300 303 304 305 305 304 304 306 309 312 315 316 315 314 311
310 314 315 312 317 336 352 355 349 339 329 320 313 308 304 301 297 294 290 287 285 284 285 285 279 272 265 258 251 245 240 237 236 237 238 238 237 238 238 239 242 244 246 249 251 251 251 252 252 251 251 251 251 252 255 258 264 269 273 278 282 285 288 291 292 294 296 297 299 301 302 302 302 302 302 304 308 312 316 318 319 318 316 314 312
312 315 312 310 321 347 0 359 357 349 338 329 320 313 309 305 301 297 294 293 292 291 290 289 283 272 264 259 255 249 242 236 234 233 235 236 237 238 239 240 243 246 249 253 255 254 253 253 253 252 252 251 253 256 259 264 269 273 278 283 286 288 291 293 295 297 298 298 298 298 298 298 300 302 306 311 315 318 320 319 318 317 317 315 313
320 322 316 315 333 6 10 3 357 347 339 334 330 323 317 311 306 301 298 296 296 293 290 289 286 277 266 257 254 252 248 243 240 238 237 238 238 239 241 242 245 247 247 249 250 250 247 245 244 244 244 246 250 255 260 266 272 277 282 287 289 291 293 294 294 294 293 293 294 295 298 301 306 310 315 318 319 319 319 319 319 319 319 319 318
323 323 322 336 4 17 12 3 354 343 338 337 336 333 329 324 315 308 304 301 297 293 290 287 286 281 271 261 255 251 250 249 248 246 244 243 243 245 245 244 243 242 241 241 241 240 236 233 232 233 236 241 247 254 262 270 278 284 287 288 288 288 287 287 287 288 290 293 298 302 308 313 316 318 319 319 319 319 320 321 322 323 324 325 325
321 321 331 350 357 356 356 356 349 342 338 339 341 341 339 334 326 318 312 306 300 294 291 289 287 282 274 266 258 252 251 252 253 252 250 249 249 247 244 240 237 235 233 233 233 232 230 228 228 230 234 240 248 258 267 275 280 283 282 281 280 280 281 283 286 291 297 304 310 314 318 320 320 319 320 320 321 322 324 325 327 327 328 330 333
331 337 344 338 327 328 339 345 343 338 335 337 342 344 343 340 334 327 321 315 307 301 299 297 292 285 278 271 262 254 251 251 252 251 249 248 247 244 238 233 231 230 229 228 227 226 226 227 229 233 241 249 256 263 269 272 274 275 274 274 275 277 282 289 296 304 312 317 319 320 320 320 320 320 322 325 326 327 329 330 331 332 333 336 340
335 342 343 330 310 310 325 333 334 333 333 336 339 342 344 344 338 330 327 324 316 309 307 304 296 287 281 277 268 258 252 249 248 245 243 241 241 239 234 228 224 223 223 223 222 222 223 226 230 237 245 253 259 264 267 268 269 270 271 274 279 287 296 305 313 319 321 321 321 321 321 321 323 326 329 332 332 332 334 335 336 337 338 342 346
327 326 328 325 314 310 317 322 324 327 330 332 332 334 339 343 341 333 327 325 321 317 315 312 304 295 288 282 270 257 249 245 240 235 232 232 231 231 228 225 221 218 218 217 218 220 224 227 232 238 245 252 257 262 265 268 272 276 283 292 301 310 318 322 323 322 321 320 322 323 323 325 329 334 338 339 338 338 340 342 343 343 344 347 351
321 316 314 312 310 310 313 314 315 319 324 328 327 326 329 336 339 335 327 323 321 321 321 318 313 308 300 287 268 250 242 239 235 228 224 221 219 219 219 220 219 218 217 216 217 222 226 230 234 240 245 251 257 263 270 279 289 300 311 320 325 328 329 327 323 320 321 323 325 326 328 333 339 344 347 346 345 345 347 348 349 349 349 351 355
317 315 313 311 310 311 312 312 313 316 320 325 326 324 324 330 336 335 330 326 325 324 323 321 315 306 294 278 261 245 236 234 232 228 223 218 214 212 213 215 216 217 218 219 221 223 226 229 233 238 242 250 261 276 290 304 316 326 333 336 337 337 334 327 323 325 329 330 331 334 338 344 348 350 350 348 346 347 348 348 346 346 349 351 353
315 312 311 310 312 315 315 315 316 317 318 320 323 322 323 330 338 338 334 331 330 326 324 320 311 297 279 264 255 246 234 229 229 228 224 221 218 215 213 214 216 219 221 221 221 221 221 224 229 235 244 261 285 305 318 328 334 338 343 344 341 339 335 332 334 338 339 338 338 340 343 347 350 348 346 345 345 345 346 345 342 341 345 348 348
320 314 310 309 310 313 315 314 314 312 312 313 314 316 320 329 338 340 337 335 333 328 324 320 310 295 276 258 250 245 236 228 227 228 226 223 221 219 218 218 221 224 224 220 216 212 210 212 219 228 244 276 307 323 332 339 346 351 352 348 345 344 344 344 347 345 342 342 344 345 346 350 351 347 344 346 347 346 346 346 343 341 344 347 346
327 325 322 317 313 310 309 309 311 312 311 310 310 312 318 327 335 337 336 335 334 330 326 320 309 292 276 263 253 245 237 229 226 228 230 230 228 226 225 223 223 222 219 214 209 204 200 197 199 204 213 238 302 329 351 8 19 22 19 12 10 3 354 350 350 347 343 345 349 349 349 353 354 350 348 350 350 346 347 349 348 346 347 349 349
324 327 328 324 317 311 309 310 314 317 319 321 321 319 318 323 331 335 334 332 332 331 328 322 308 288 274 265 253 243 237 231 226 226 229 232 234 235 234 229 223 219 214 209 206 203 196 187 180 177 172 165 136 87 72 64 59 57 51 37 18 359 345 344 348 348 345 346 350 350 350 353 354 352 353 355 352 348 348 349 348 346 346 347 349
Height
3091 3091 3090 3089 3090 3091 3093 3096 3099 3102 3105 3106 3107 3109 3110 3109 3109 3109 3110 3112 3115 3117 3119 3121 3122 3123 3124 3124 3124 3125 3125 3125 3126 3127 3128 3128 3129 3129 3130 3131 3131 3132 3133 3134 3135 3136 3138 3139 3140 3141 3142 3143 3145 3146 3148 3148 3149 3151 3151 3152 3153 3154 3156 3157 3157 3157 3157 3156 3156 3157 3157 3157 3158 3158 3159 3159 3160 3161 3162 3163 3164 3164 3165 3165 3165
3090 3089 3088 3086 3087 3088 3089 3093 3097 3100 3102 3104 3105 3106 3108 3109 3109 3108 3109 3111 3114 3116 3118 3120 3121 3122 3123 3123 3123 3124 3124 3124 3124 3125 3126 3127 3128 3128 3129 3130 3130 3131 3132 3133 3134 3135 3136 3137 3138 3140 3141 3142 3143 3145 3146 3147 3148 3149 3150 3151 3152 3153 3155 3156 3156 3156 3156 3156 3155 3156 3156 3156 3157 3157 3158 3158 3159 3160 3161 3162 3162 3163 3163 3164 3164
3088 3087 3086 3085 3087 3087 3086 3090 3094 3098 3100 3102 3103 3104 3106 3108 3109 3108 3107 3108 3112 3115 3117 3119 3120 3121 3121 3121 3121 3122 3123 3123 3123 3124 3125 3126 3126 3127 3127 3128 3129 3130 3131 3132 3133 3134 3135 3136 3137 3138 3139 3140 3141 3143 3144 3145 3146 3147 3148 3149 3151 3152 3153 3155 3155 3155 3155 3155 3154 3155 3155 3155 3156 3156 3156 3157 3158 3159 3159 3160 3161 3161 3162 3162 3163
3088 3086 3085 3085 3086 3087 3087 3088 3091 3095 3098 3100 3102 3104 3105 3106 3109 3109 3106 3105 3109 3113 3115 3116 3118 3119 3120 3120 3119 3120 3121 3121 3122 3122 3123 3124 3124 3125 3126 3127 3127 3128 3129 3130 3131 3132 3133 3135 3136 3137 3138 3139 3139 3140 3142 3143 3144 3145 3147 3148 3149 3150 3152 3153 3154 3154 3153 3154 3154 3154 3154 3154 3155 3155 3155 3156 3157 3158 3158 3159 3159 3160 3160 3161 3162
3087 3087 3086 3085 3086 3087 3087 3087 3089 3092 3096 3099 3102 3103 3104 3105 3108 3110 3109 3107 3109 3112 3113 3114 3116 3117 3118 3118 3117 3118 3118 3119 3120 3121 3121 3122 3122 3123 3124 3125 3126 3127 3127 3128 3129 3131 3132 3133 3134 3135 3136 3137 3137 3138 3140 3141 3142 3144 3145 3146 3147 3148 3150 3151 3152 3152 3152 3153 3153 3153 3153 3153 3153 3154 3154 3155 3155 3156 3157 3157 3158 3159 3159 3160 3160
3087 3086 3086 3086 3085 3085 3086 3087 3088 3090 3093 3097 3100 3102 3103 3104 3106 3109 3109 3108 3108 3111 3112 3113 3114 3114 3115 3116 3116 3116 3116 3117 3118 3119 3119 3120 3121 3122 3123 3124 3125 3125 3126 3127 3128 3129 3130 3131 3132 3133 3134 3135 3136 3137 3138 3139 3140 3142 3144 3145 3146 3147 3148 3149 3150 3151 3151 3151 3152 3152 3152 3152 3153 3153 3153 3154 3154 3155 3155 3156 3156 3157 3158 3158 3159
3086 3086 3085 3085 3085 3083 3084 3086 3087 3088 3091 3095 3098 3100 3101 3102 3104 3107 3107 3106 3106 3109 3110 3111 3112 3113 3113 3114 3114 3114 3115 3115 3116 3117 3118 3118 3119 3120 3122 3123 3123 3124 3125 3126 3127 3128 3129 3130 3131 3132 3132 3133 3134 3135 3136 3137 3139 3140 3142 3143 3144 3145 3146 3147 3148 3149 3149 3150 3151 3151 3151 3151 3152 3152 3152 3153 3153 3153 3154 3154 3155 3156 3156 3157 3157
3086 3086 3084 3084 3083 3082 3082 3085 3086 3088 3090 3093 3096 3098 3099 3100 3102 3105 3105 3105 3105 3107 3108 3110 3111 3112 3112 3112 3112 3113 3114 3114 3115 3116 3116 3117 3118 3119 3120 3121 3122 3123 3124 3124 3125 3126 3127 3128 3129 3130 3131 3132 3133 3134 3135 3136 3137 3138 3140 3141 3142 3144 3145 3146 3146 3147 3148 3149 3149 3149 3149 3150 3150 3151 3151 3151 3152 3152 3153 3153 3154 3154 3155 3155 3155
3085 3085 3084 3084 3083 3082 3082 3084 3086 3087 3089 3091 3094 3096 3097 3098 3100 3101 3103 3104 3104 3105 3106 3108 3109 3110 3111 3111 3111 3111 3112 3113 3114 3114 3115 3116 3116 3117 3118 3119 3120 3121 3122 3123 3123 3124 3125 3127 3127 3128 3129 3130 3131 3132 3133 3134 3135 3137 3138 3139 3140 3142 3143 3144 3144 3145 3146 3147 3147 3148 3148 3148 3149 3149 3150 3150 3151 3152 3151 3152 3153 3153 3153 3153 3154
3083 3083 3083 3083 3083 3083 3084 3085 3086 3087 3088 3090 3092 3093 3094 3095 3097 3098 3100 3101 3102 3102 3104 3105 3107 3108 3109 3109 3109 3110 3110 3111 3112 3113 3114 3114 3115 3116 3117 3118 3119 3120 3120 3121 3122 3123 3124 3125 3126 3127 3128 3128 3129 3129 3131 3132 3133 3135 3136 3137 3138 3140 3141 3142 3143 3144 3145 3145 3146 3146 3146 3147 3148 3148 3149 3149 3150 3150 3150 3150 3151 3151 3151 3151 3152
3081 3081 3081 3081 3082 3082 3083 3085 3086 3087 3087 3088 3090 3091 3092 3093 3094 3095 3097 3099 3099 3100 3102 3103 3104 3106 3107 3108 3108 3109 3109 3109 3110 3111 3112 3113 3114 3115 3116 3116 3117 3118 3119 3119 3120 3121 3123 3124 3124 3125 3126 3126 3127 3128 3129 3130 3131 3133 3135 3136 3137 3138 3139 3140 3141 3142 3143 3143 3144 3144 3144 3145 3146 3146 3147 3147 3147 3148 3148 3148 3149 3149 3149 3149 3150
3079 3079 3079 3079 3079 3080 3081 3084 3085 3085 3086 3086 3088 3089 3089 3090 3091 3093 3095 3096 3097 3098 3099 3101 3102 3104 3105 3106 3107 3108 3108 3108 3109 3109 3110 3111 3113 3114 3114 3115 3116 3116 3117 3118 3119 3120 3121 3122 3123 3123 3124 3125 3126 3126 3127 3128 3129 3131 3133 3134 3135 3136 3138 3139 3140 3141 3141 3142 3141 3142 3142 3143 3144 3144 3145 3145 3145 3145 3146 3146 3146 3146 3146 3146 3146
3077 3077 3076 3076 3076 3077 3079 3082 3083 3083 3083 3084 3086 3086 3086 3087 3087 3089 3091 3093 3094 3095 3097 3099 3100 3101 3103 3104 3105 3106 3107 3107 3108 3108 3109 3110 3110 3111 3112 3114 3114 3115 3115 3116 3117 3118 3119 3120 3121 3121 3122 3123 3124 3126 3127 3127 3128 3130 3132 3133 3134 3135 3136 3137 3138 3139 3140 3140 3140 3140 3140 3141 3141 3142 3142 3142 3143 3143 3143 3143 3143 3143 3143 3142 3143
3075 3074 3074 3073 3073 3074 3076 3078 3079 3079 3079 3080 3082 3082 3082 3083 3083 3084 3087 3089 3091 3092 3094 3096 3098 3099 3100 3101 3102 3103 3104 3105 3106 3107 3108 3108 3108 3109 3110 3111 3112 3113 3114 3115 3115 3116 3117 3118 3119 3119 3120 3121 3123 3124 3125 3127 3128 3129 3130 3131 3132 3133 3134 3135 3136 3137 3138 3138 3138 3138 3138 3138 3139 3139 3139 3139 3139 3140 3140 3139 3139 3139 3139 3139 3139
3074 3073 3072 3071 3071 3071 3072 3073 3073 3074 3074 3075 3077 3078 3078 3078 3079 3080 3082 3084 3087 3088 3091 3093 3094 3095 3096 3097 3099 3100 3102 3103 3104 3105 3106 3106 3107 3107 3107 3108 3110 3111 3112 3113 3114 3114 3115 3116 3117 3118 3119 3120 3121 3122 3123 3125 3126 3127 3128 3129 3130 3131 3132 3133 3134 3134 3135 3135 3135 3135 3135 3136 3136 3136 3136 3137 3137 3137 3137 3136 3136 3136 3135 3135 3135
3072 3071 3070 3069 3069 3069 3069 3069 3069 3069 3069 3070 3072 3073 3074 3074 3075 3077 3078 3080 3082 3084 3086 3089 3090 3092 3093 3094 3096 3097 3099 3101 3102 3102 3103 3104 3105 3106 3106 3107 3108 3109 3110 3111 3112 3112 3113 3114 3115 3116 3117 3118 3119 3120 3121 3123 3124 3125 3126 3126 3127 3128 3129 3130 3131 3131 3132 3132 3132 3133 3133 3133 3133 3134 3134 3134 3134 3134 3134 3134 3133 3133 3133 3132 3132
3070 3069 3068 3068 3067 3067 3066 3066 3066 3065 3066 3067 3068 3069 3070 3071 3072 3073 3074 3075 3077 3079 3081 3084 3086 3088 3089 3091 3093 3095 3096 3098 3099 3100 3101 3101 3102 3103 3104 3105 3106 3106 3107 3108 3110 3111 3112 3113 3113 3114 3115 3116 3117 3118 3119 3121 3122 3122 3123 3124 3125 3126 3126 3127 3128 3128 3129 3129 3130 3130 3131 3131 3131 3131 3131 3131 3131 3131 3131 3130 3130 3129 3129 3128 3128
3069 3067 3066 3065 3065 3065 3064 3064 3063 3062 3062 3063 3064 3066 3068 3069 3069 3069 3069 3070 3072 3074 3076 3079 3082 3084 3087 3089 3090 3092 3094 3095 3097 3098 3098 3099 3100 3100 3102 3103 3104 3104 3105 3106 3107 3108 3110 3111 3112 3113 3113 3114 3116 3117 3118 3119 3119 3120 3121 3122 3122 3123 3124 3125 3125 3126 3127 3127 3127 3128 3128 3128 3128 3128 3128 3128 3128 3128 3128 3127 3127 3126 3125 3124 3123
3068 3066 3065 3064 3063 3062 3062 3062 3061 3060 3060 3061 3061 3063 3064 3065 3065 3065 3065 3066 3067 3069 3072 3076 3079 3081 3083 3086 3087 3089 3091 3092 3094 3095 3096 3096 3097 3098 3099 3100 3101 3102 3103 3104 3105 3106 3107 3109 3110 3111 3112 3113 3114 3115 3116 3116 3117 3118 3119 3120 3120 3121 3121 3122 3123 3123 3124 3124 3125 3125 3125 3125 3125 3125 3124 3125 3125 3125 3124 3124 3123 3123 3121 3120 3119
3068 3066 3065 3063 3062 3061 3060 3060 3060 3059 3059 3059 3059 3060 3060 3060 3061 3062 3062 3062 3063 3067 3070 3074 3076 3078 3080 3082 3084 3086 3088 3089 3090 3092 3093 3094 3094 3095 3096 3097 3098 3099 3100 3101 3102 3103 3104 3106 3108 3109 3110 3111 3112 3113 3114 3115 3115 3116 3117 3118 3118 3119 3119 3119 3120 3120 3121 3121 3121 3122 3122 3122 3122 3121 3121 3121 3120 3120 3120 3119 3118 3118 3116 3115 3113
3068 3066 3065 3063 3062 3061 3060 3060 3059 3058 3058 3058 3058 3058 3058 3058 3058 3059 3060 3059 3061 3064 3067 3070 3073 3076 3077 3079 3080 3082 3084 3086 3087 3089 3090 3091 3091 3092 3093 3094 3095 3096 3097 3099 3100 3100 3101 3103 3105 3106 3107 3109 3110 3111 3112 3113 3113 3114 3115 3115 3116 3116 3116 3117 3117 3117 3118 3118 3118 3118 3118 3118 3118 3117 3117 3116 3116 3115 3114 3114 3113 3112 3111 3109 3108
3069 3067 3065 3064 3063 3062 3061 3060 3060 3059 3058 3057 3057 3057 3056 3056 3056 3056 3056 3056 3057 3060 3063 3066 3070 3073 3075 3076 3077 3078 3080 3082 3084 3085 3087 3088 3089 3089 3090 3091 3092 3093 3095 3096 3097 3098 3099 3100 3102 3104 3105 3106 3107 3108 3109 3110 3111 3112 3112 3113 3113 3113 3114 3114 3114 3114 3114 3114 3114 3114 3114 3114 3113 3113 3112 3112 3111 3111 3110 3109 3108 3106 3105 3104 3102
3069 3068 3066 3065 3063 3062 3061 3061 3060 3060 3059 3059 3058 3057 3057 3056 3056 3055 3055 3055 3056 3058 3060 3063 3066 3068 3071 3073 3074 3075 3076 3078 3080 3082 3084 3085 3086 3086 3087 3088 3089 3091 3093 3094 3094 3095 3096 3097 3099 3101 3102 3103 3104 3105 3106 3107 3108 3109 3109 3110 3110 3110 3110 3111 3111 3111 3111 3111 3111 3110 3110 3110 3109 3109 3108 3107 3107 3106 3105 3104 3103 3102 3100 3099 3097
3070 3069 3067 3066 3064 3063 3062 3061 3061 3060 3060 3060 3060 3059 3059 3058 3057 3057 3056 3056 3056 3057 3059 3062 3064 3065 3067 3069 3071 3072 3073 3074 3076 3078 3080 3081 3082 3083 3084 3084 3086 3087 3089 3091 3092 3092 3093 3094 3095 3097 3098 3100 3102 3103 3103 3104 3105 3105 3106 3106 3106 3106 3106 3107 3107 3107 3107 3106 3106 3106 3105 3105 3104 3104 3103 3103 3102 3102 3101 3100 3099 3097 3096 3094 3092
3071 3069 3068 3066 3065 3064 3063 3062 3061 3060 3060 3059 3059 3059 3059 3059 3059 3059 3059 3058 3057 3058 3060 3061 3062 3063 3065 3067 3068 3070 3071 3071 3072 3074 3076 3077 3079 3080 3080 3081 3081 3083 3084 3086 3087 3088 3089 3090 3091 3093 3095 3096 3098 3099 3100 3101 3101 3101 3102 3102 3102 3102 3102 3102 3102 3102 3102 3102 3101 3101 3100 3100 3100 3099 3099 3098 3097 3097 3096 3095 3094 3092 3091 3089 3088
3071 3070 3068 3067 3065 3064 3063 3062 3061 3060 3060 3059 3058 3058 3057 3057 3057 3058 3059 3059 3059 3060 3061 3061 3061 3062 3064 3066 3067 3069 3070 3070 3071 3072 3073 3074 3075 3076 3076 3077 3078 3079 3080 3081 3083 3084 3085 3087 3088 3090 3091 3092 3094 3095 3096 3096 3097 3097 3097 3097 3098 3098 3098 3098 3098 3097 3097 3097 3097 3096 3096 3096 3096 3095 3094 3094 3093 3092 3091 3090 3089 3088 3087 3086 3084
3071 3070 3069 3067 3066 3065 3063 3062 3062 3061 3060 3059 3058 3058 3057 3056 3056 3056 3057 3057 3058 3059 3060 3061 3062 3062 3064 3065 3066 3067 3067 3068 3069 3069 3070 3070 3071 3071 3071 3072 3074 3075 3077 3078 3079 3080 3081 3083 3084 3085 3086 3088 3089 3090 3091 3092 3092 3092 3093 3093 3093 3093 3093 3093 3093 3093 3093 3093 3093 3093 3092 3092 3091 3091 3090 3089 3088 3087 3086 3086 3085 3084 3083 3082 3080
3070 3069 3068 3067 3066 3065 3064 3063 3062 3061 3060 3060 3059 3058 3057 3056 3056 3056 3055 3055 3056 3057 3058 3059 3060 3061 3062 3063 3063 3064 3064 3064 3065 3066 3066 3066 3066 3067 3067 3068 3070 3073 3075 3076 3077 3077 3078 3078 3079 3081 3082 3083 3084 3085 3086 3086 3087 3087 3088 3088 3088 3089 3089 3089 3089 3090 3090 3090 3089 3089 3089 3088 3087 3086 3086 3085 3084 3083 3082 3081 3080 3079 3078 3077 3075
3069 3068 3067 3067 3066 3065 3064 3063 3062 3061 3061 3060 3059 3059 3058 3057 3056 3056 3056 3055 3055 3056 3056 3057 3057 3058 3059 3060 3060 3060 3061 3061 3062 3062 3063 3063 3064 3065 3066 3067 3069 3071 3072 3073 3074 3074 3075 3075 3076 3077 3078 3079 3080 3080 3081 3081 3082 3082 3083 3084 3085 3085 3086 3086 3087 3087 3087 3086 3086 3085 3085 3084 3083 3083 3082 3081 3080 3079 3078 3077 3076 3075 3073 3072 3070
3068 3067 3066 3066 3065 3064 3064 3063 3062 3062 3061 3060 3059 3059 3058 3057 3057 3057 3056 3056 3056 3056 3056 3056 3057 3057 3057 3057 3058 3058 3058 3059 3059 3060 3060 3061 3062 3063 3064 3065 3066 3067 3068 3069 3070 3071 3071 3072 3073 3074 3075 3075 3076 3076 3077 3078 3078 3079 3080 3081 3082 3083 3084 3084 3084 3083 3083 3082 3082 3081 3081 3080 3080 3079 3078 3077 3076 3076 3075 3073 3072 3071 3070 3068 3066
3066 3066 3065 3064 3064 3063 3063 3062 3061 3061 3061 3060 3059 3058 3058 3057 3057 3057 3056 3056 3056 3056 3056 3056 3056 3056 3056 3057 3057 3057 3057 3057 3057 3057 3057 3058 3059 3060 3061 3061 3062 3063 3065 3066 3067 3068 3069 3069 3070 3071 3072 3073 3073 3074 3074 3075 3076 3077 3079 3080 3080 3081 3081 3080 3080 3080 3079 3079 3078 3078 3077 3077 3076 3076 3075 3075 3074 3072 3071 3070 3068 3067 3065 3063 3061
3065 3064 3063 3063 3063 3062 3062 3061 3060 3060 3059 3059 3058 3058 3057 3057 3056 3056 3056 3056 3056 3056 3056 3056 3056 3056 3055 3056 3056 3056 3056 3056 3056 3056 3056 3056 3057 3057 3058 3059 3060 3061 3062 3063 3064 3066 3067 3067 3068 3069 3069 3070 3071 3072 3073 3074 3075 3076 3076 3077 3077 3077 3077 3077 3076 3076 3076 3075 3075 3075 3074 3074 3074 3073 3072 3072 3070 3069 3068 3066 3064 3063 3061 3059 3057
3065 3063 3062 3061 3061 3060 3061 3060 3060 3059 3058 3058 3057 3057 3057 3056 3056 3055 3055 3055 3055 3055 3055 3055 3055 3054 3054 3054 3054 3055 3055 3055 3055 3055 3055 3055 3056 3056 3057 3058 3059 3059 3060 3061 3063 3064 3065 3066 3067 3067 3068 3069 3070 3071 3072 3072 3073 3073 3074 3074 3074 3074 3074 3073 3073 3073 3073 3072 3072 3072 3072 3071 3071 3070 3069 3068 3067 3066 3064 3063 3061 3059 3057 3056 3054
3064 3063 3062 3060 3059 3059 3059 3059 3058 3058 3057 3057 3056 3056 3055 3055 3054 3054 3054 3054 3053 3053 3053 3053 3053 3053 3053 3053 3053 3053 3053 3053 3054 3054 3054 3054 3055 3055 3056 3057 3057 3058 3059 3060 3062 3063 3064 3065 3066 3066 3067 3068 3068 3069 3070 3070 3071 3071 3071 3071 3071 3071 3071 3071 3070 3070 3070 3070 3069 3069 3069 3068 3067 3066 3065 3064 3063 3062 3061 3059 3057 3056 3054 3052 3050
3063 3062 3061 3060 3058 3058 3057 3057 3057 3057 3056 3055 3055 3054 3054 3053 3053 3052 3052 3052 3052 3052 3052 3052 3052 3052 3052 3052 3052 3052 3052 3052 3052 3053 3054 3054 3054 3054 3055 3056 3057 3058 3059 3060 3061 3062 3063 3064 3065 3065 3066 3067 3067 3068 3068 3068 3069 3069 3069 3069 3069 3069 3069 3069 3068 3068 3067 3067 3067 3066 3065 3065 3064 3063 3062 3061 3060 3058 3057 3056 3054 3052 3050 3048 3045
3062 3061 3060 3059 3058 3057 3057 3056 3056 3056 3055 3054 3054 3053 3052 3052 3051 3051 3051 3050 3050 3050 3050 3050 3050 3050 3051 3051 3051 3050 3050 3050 3051 3052 3052 3053 3053 3054 3055 3056 3057 3058 3059 3060 3061 3062 3063 3063 3064 3064 3065 3065 3065 3066 3066 3067 3067 3067 3067 3067 3067 3067 3067 3066 3066 3065 3065 3064 3064 3063 3063 3062 3061 3060 3059 3058 3057 3055 3054 3052 3050 3048 3046 3044 3042
3061 3060 3059 3058 3057 3057 3057 3056 3056 3055 3054 3054 3053 3052 3051 3051 3050 3050 3049 3049 3049 3049 3049 3048 3048 3049 3049 3049 3049 3049 3049 3050 3050 3051 3052 3053 3053 3054 3055 3055 3056 3057 3058 3059 3059 3060 3061 3062 3062 3062 3063 3063 3064 3064 3064 3065 3065 3065 3065 3065 3065 3064 3064 3064 3063 3063 3063 3062 3061 3061 3060 3059 3058 3057 3056 3055 3054 3052 3050 3048 3046 3044 3042 3041 3039
3060 3059 3058 3058 3057 3057 3056 3056 3056 3055 3054 3053 3052 3051 3050 3050 3049 3049 3048 3048 3047 3048 3048 3047 3047 3047 3047 3048 3048 3048 3048 3049 3050 3050 3051 3052 3053 3053 3054 3055 3055 3056 3056 3057 3058 3058 3059 3059 3060 3060 3061 3061 3061 3062 3062 3062 3063 3063 3063 3063 3062 3062 3062 3061 3061 3061 3060 3060 3059 3058 3057 3057 3056 3055 3054 3052 3050 3048 3046 3044 3042 3041 3040 3038 3036
3059 3059 3058 3057 3057 3057 3056 3056 3055 3054 3054 3053 3052 3051 3050 3049 3048 3047 3047 3046 3046 3046 3046 3046 3046 3046 3046 3046 3047 3047 3047 3048 3049 3049 3050 3051 3052 3052 3053 3053 3054 3054 3055 3055 3056 3056 3057 3057 3058 3058 3059 3059 3059 3060 3060 3061 3061 3061 3061 3061 3060 3060 3060 3059 3059 3059 3058 3058 3057 3056 3056 3055 3054 3053 3051 3049 3046 3045 3043 3042 3040 3039 3037 3035 3034
3059 3058 3057 3057 3057 3057 3056 3056 3055 3054 3053 3052 3051 3050 3049 3048 3047 3046 3046 3045 3045 3045 3045 3045 3045 3045 3045 3045 3045 3046 3046 3046 3047 3048 3049 3050 3050 3051 3051 3052 3052 3053 3053 3054 3054 3055 3055 3056 3056 3057 3057 3057 3058 3058 3059 3059 3059 3059 3059 3059 3058 3058 3058 3058 3057 3057 3057 3056 3056 3055 3053 3052 3051 3049 3047 3045 3044 3042 3041 3040 3038 3037 3035 3033 3031
3058 3058 3057 3057 3057 3057 3057 3056 3055 3054 3053 3052 3051 3050 3049 3048 3047 3046 3045 3044 3044 3044 3043 3043 3043 3043 3043 3044 3044 3044 3044 3045 3046 3046 3047 3048 3049 3049 3050 3050 3051 3051 3052 3053 3053 3053 3054 3055 3055 3055 3056 3056 3057 3057 3057 3057 3057 3057 3057 3057 3057 3057 3057 3057 3056 3056 3055 3054 3053 3052 3050 3048 3047 3045 3044 3043 3042 3040 3039 3038 3036 3034 3033 3031 3029
3058 3058 3058 3058 3058 3058 3057 3056 3055 3054 3053 3052 3050 3049 3048 3047 3046 3045 3044 3044 3043 3043 3042 3042 3042 3042 3042 3042 3043 3043 3043 3043 3044 3045 3046 3046 3047 3048 3049 3049 3050 3050 3051 3051 3052 3052 3053 3053 3054 3054 3054 3055 3055 3055 3056 3056 3056 3056 3056 3056 3056 3056 3056 3055 3055 3054 3052 3051 3049 3048 3047 3045 3044 3043 3042 3041 3040 3038 3037 3036 3034 3032 3031 3029 3027
3059 3058 3059 3059 3058 3058 3057 3056 3055 3054 3052 3051 3050 3049 3048 3047 3045 3044 3044 3043 3043 3042 3042 3042 3041 3041 3041 3041 3041 3042 3042 3042 3043 3044 3044 3045 3046 3046 3047 3048 3049 3049 3050 3050 3051 3051 3051 3052 3052 3053 3053 3053 3054 3054 3054 3055 3055 3055 3055 3055 3055 3055 3054 3053 3052 3050 3049 3047 3046 3045 3045 3044 3043 3042 3041 3039 3038 3036 3035 3034 3032 3031 3029 3028 3026
3060 3059 3059 3058 3058 3058 3057 3056 3055 3054 3052 3050 3049 3048 3047 3046 3045 3044 3043 3043 3042 3042 3041 3041 3041 3040 3040 3040 3040 3040 3041 3041 3042 3042 3043 3044 3044 3045 3046 3047 3047 3048 3049 3049 3049 3050 3050 3051 3051 3051 3052 3052 3053 3053 3053 3054 3054 3054 3054 3053 3053 3052 3050 3049 3048 3047 3046 3045 3045 3044 3043 3042 3041 3040 3039 3038 3036 3035 3033 3032 3031 3029 3028 3027 3025
3060 3059 3059 3058 3058 3057 3056 3055 3054 3053 3052 3050 3049 3048 3047 3046 3045 3044 3043 3042 3042 3041 3041 3040 3040 3040 3039 3039 3039 3039 3040 3040 3041 3041 3042 3043 3043 3044 3045 3045 3046 3047 3047 3048 3048 3049 3049 3050 3050 3051 3051 3052 3052 3052 3052 3052 3052 3052 3051 3050 3049 3048 3047 3046 3046 3045 3045 3044 3044 3043 3042 3041 3040 3039 3038 3037 3035 3034 3032 3031 3030 3029 3027 3026 3025
3060 3059 3058 3058 3057 3056 3056 3055 3054 3053 3051 3050 3049 3047 3046 3045 3044 3043 3043 3042 3041 3040 3040 3039 3039 3039 3039 3039 3039 3039 3039 3039 3040 3041 3041 3042 3043 3043 3044 3045 3045 3046 3046 3047 3047 3048 3048 3049 3049 3050 3050 3051 3051 3051 3050 3050 3049 3048 3047 3047 3046 3046 3045 3045 3045 3044 3044 3043 3043 3042 3041 3040 3039 3038 3037 3036 3034 3033 3032 3030 3029 3028 3027 3026 3024
3059 3058 3057 3057 3056 3056 3055 3054 3053 3052 3051 3049 3048 3047 3046 3045 3044 3043 3042 3041 3040 3040 3039 3039 3038 3038 3038 3038 3038 3038 3039 3039 3039 3040 3041 3041 3042 3043 3044 3044 3045 3045 3046 3046 3047 3047 3048 3048 3048 3049 3049 3049 3049 3048 3048 3047 3046 3046 3045 3045 3045 3045 3044 3044 3044 3044 3043 3043 3042 3041 3041 3040 3038 3037 3036 3035 3033 3032 3031 3030 3029 3028 3026 3025 3024
3058 3057 3056 3055 3055 3054 3054 3053 3052 3051 3050 3049 3048 3046 3045 3044 3043 3042 3041 3041 3040 3039 3038 3038 3037 3037 3037 3037 3037 3037 3038 3038 3039 3039 3040 3041 3042 3042 3043 3043 3044 3045 3045 3046 3046 3046 3047 3047 3047 3047 3047 3047 3046 3046 3045 3045 3045 3044 3044 3044 3044 3044 3044 3043 3043 3043 3043 3042 3041 3041 3040 3039 3037 3036 3035 3034 3033 3032 3031 3030 3029 3027 3026 3025 3024
3058 3057 3055 3054 3054 3053 3053 3052 3051 3050 3049 3048 3047 3046 3045 3044 3043 3042 3041 3040 3039 3039 3038 3037 3036 3036 3036 3036 3036 3037 3037 3038 3038 3039 3039 3040 3041 3042 3042 3043 3043 3043 3044 3044 3045 3045 3045 3045 3045 3045 3045 3045 3045 3044 3044 3044 3044 3044 3044 3044 3044 3044 3043 3043 3043 3042 3042 3041 3040 3039 3038 3038 3037 3036 3035 3034 3033 3032 3031 3030 3028 3027 3026 3025 3023
3057 3056 3055 3054 3053 3052 3052 3051 3050 3050 3048 3047 3046 3045 3044 3043 3042 3041 3040 3040 3039 3038 3037 3037 3036 3035 3035 3036 3036 3036 3036 3037 3038 3038 3039 3039 3040 3041 3041 3041 3042 3042 3042 3043 3043 3044 3044 3044 3044 3044 3044 3044 3044 3044 3044 3044 3044 3044 3044 3044 3043 3043 3043 3043 3042 3042 3041 3040 3039 3038 3038 3037 3036 3035 3034 3033 3032 3031 3030 3029 3028 3027 3026 3025 3024
3057 3055 3054 3053 3052 3051 3051 3050 3049 3049 3047 3046 3045 3044 3044 3043 3042 3041 3040 3039 3039 3038 3037 3036 3036 3035 3035 3035 3035 3035 3036 3036 3037 3037 3038 3038 3039 3039 3040 3040 3040 3041 3041 3042 3042 3042 3043 3043 3043 3043 3043 3043 3043 3043 3043 3043 3043 3043 3043 3043 3043 3043 3042 3042 3041 3041 3040 3039 3039 3038 3037 3036 3036 3035 3034 3033 3032 3031 3030 3029 3028 3027 3026 3025 3024